Location: Famechon
(49.7599°N, 2.0615°E)
Time: 08:28:36
(UTC+00:00)

Cosmos 1190 Rocket - Pass Details

Date: 03 February 2023
Orbit: 756 x 778 km, 74.1° (Epoch: 23 March)

Event Time Altitude Azimuth Distance (km) Brightness Sun altitude
Rises 17:33:30 0° 188° (S) 3,248 7.6 -7.5°
Reaches altitude 10° 17:35:55 10° 184° (S) 2,323 6.8 -7.8°
Maximum altitude 17:41:03 55° 107° (ESE) 927 4.2 -8.6°
Drops below altitude 10° 17:46:13 10° 31° (NNE) 2,330 6.1 -9.4°
Sets 17:48:38 0° 27° (NNE) 3,259 6.9 -9.8°
